AIB210 YSSY-YMML

Flight info

Callsign AIB210
Flight time 1h 17m
Altitude 38000
Route YSSY/25 DCT TESAT H65 LEECE Q29 BOOIN BOOIN1A YMML/27
Aircraft A20N/M-SDE3/L

Departure

Time 2026-05-08 02:17
Airport Sydney Kingsford Smith International Airport (YSSY)

Arrival

Time 2026-05-08 03:34
Airport Melbourne Airport (YMML)
Time Latitude Longitude Altitude Speed Heading
2026-05-08 01:56 -33.93534 151.18956 28 ft 0 kts 164°
2026-05-08 02:11 -33.93543 151.18959 28 ft 2 kts 164°
2026-05-08 02:12 -33.93565 151.18964 28 ft 4 kts 183°
2026-05-08 02:12 -33.93595 151.18955 27 ft 5 kts 200°
2026-05-08 02:12 -33.93632 151.18945 27 ft 5 kts 176°
2026-05-08 02:12 -33.93635 151.18945 27 ft 0 kts 174°
2026-05-08 02:15 -33.93670 151.18950 27 ft 11 kts 174°
2026-05-08 02:16 -33.93751 151.18942 26 ft 11 kts 211°
2026-05-08 02:16 -33.93799 151.18796 28 ft 44 kts 256°
2026-05-08 02:16 -33.93948 151.18164 19 ft 110 kts 255°
2026-05-08 02:16 -33.94196 151.17094 219 ft 142 kts 256°
2026-05-08 02:17 -33.94414 151.15935 788 ft 143 kts 260°
2026-05-08 02:17 -33.94581 151.14760 1345 ft 145 kts 262°
2026-05-08 02:17 -33.94720 151.13579 1885 ft 145 kts 261°
2026-05-08 02:17 -33.95166 151.12442 2149 ft 165 kts 221°
2026-05-08 02:18 -33.96269 151.11850 2460 ft 184 kts 202°
2026-05-08 02:18 -33.97535 151.11379 2743 ft 201 kts 202°
2026-05-08 02:18 -33.98445 151.11006 2894 ft 213 kts 204°
2026-05-08 02:18 -34.00389 151.10103 3403 ft 238 kts 206°
2026-05-08 02:19 -34.01958 151.09303 3949 ft 253 kts 207°
2026-05-08 02:19 -34.03579 151.08446 4762 ft 257 kts 207°
2026-05-08 02:19 -34.05189 151.07576 5744 ft 254 kts 207°
2026-05-08 02:19 -34.06727 151.06737 6897 ft 242 kts 207°
2026-05-08 02:20 -34.08219 151.05913 7948 ft 234 kts 207°
2026-05-08 02:20 -34.09679 151.05101 8746 ft 236 kts 207°
2026-05-08 02:20 -34.11168 151.04271 9508 ft 239 kts 207°
2026-05-08 02:20 -34.12663 151.03441 10260 ft 241 kts 207°
2026-05-08 02:21 -34.14172 151.02600 10994 ft 244 kts 207°
2026-05-08 02:21 -34.15705 151.01744 11717 ft 246 kts 207°
2026-05-08 02:21 -34.17267 151.00870 12435 ft 249 kts 207°
2026-05-08 02:21 -34.18312 151.00285 12912 ft 250 kts 207°
2026-05-08 02:22 -34.20403 150.99115 13857 ft 253 kts 208°
2026-05-08 02:22 -34.22011 150.98212 14562 ft 255 kts 208°
2026-05-08 02:22 -34.23587 150.97307 15235 ft 256 kts 213°
2026-05-08 02:22 -34.24979 150.96001 15902 ft 254 kts 227°
2026-05-08 02:23 -34.26187 150.94472 16572 ft 255 kts 230°
2026-05-08 02:23 -34.26987 150.93434 17007 ft 256 kts 229°
2026-05-08 02:23 -34.28621 150.91354 17872 ft 258 kts 229°
2026-05-08 02:23 -34.29857 150.89816 18503 ft 259 kts 229°
2026-05-08 02:24 -34.31133 150.88249 19131 ft 261 kts 229°
2026-05-08 02:24 -34.32405 150.86696 19737 ft 262 kts 229°
2026-05-08 02:24 -34.33256 150.85660 20134 ft 263 kts 229°
2026-05-08 02:24 -34.34974 150.83575 20900 ft 266 kts 229°
2026-05-08 02:25 -34.36273 150.82001 21450 ft 268 kts 229°
2026-05-08 02:25 -34.37599 150.80396 21993 ft 270 kts 229°
2026-05-08 02:25 -34.38934 150.78778 22524 ft 273 kts 229°
2026-05-08 02:25 -34.40269 150.77162 23038 ft 275 kts 229°
2026-05-08 02:26 -34.41609 150.75540 23540 ft 277 kts 230°
2026-05-08 02:26 -34.42983 150.73875 24038 ft 279 kts 230°
2026-05-08 02:26 -34.44349 150.72218 24518 ft 281 kts 230°
2026-05-08 02:26 -34.45729 150.70543 24989 ft 284 kts 230°
2026-05-08 02:27 -34.47115 150.68861 25445 ft 286 kts 230°
2026-05-08 02:27 -34.48528 150.67122 25899 ft 288 kts 231°
2026-05-08 02:27 -34.49919 150.65396 26333 ft 290 kts 231°
2026-05-08 02:27 -34.51323 150.63654 26757 ft 292 kts 231°
2026-05-08 02:28 -34.52734 150.61903 27168 ft 294 kts 231°
2026-05-08 02:28 -34.54172 150.60120 27573 ft 296 kts 231°
2026-05-08 02:28 -34.55621 150.58322 27972 ft 298 kts 231°
2026-05-08 02:28 -34.57066 150.56528 28356 ft 300 kts 231°
2026-05-08 02:29 -34.58514 150.54730 28731 ft 302 kts 231°
2026-05-08 02:29 -34.59999 150.52887 29102 ft 304 kts 231°
2026-05-08 02:29 -34.61476 150.51051 29460 ft 306 kts 231°
2026-05-08 02:29 -34.62963 150.49203 29813 ft 308 kts 231°
2026-05-08 02:30 -34.64465 150.47336 30158 ft 310 kts 232°
2026-05-08 02:30 -34.65963 150.45471 30491 ft 312 kts 232°
2026-05-08 02:30 -34.67484 150.43578 30820 ft 314 kts 232°
2026-05-08 02:30 -34.69000 150.41689 31137 ft 316 kts 232°
2026-05-08 02:31 -34.70528 150.39784 31448 ft 318 kts 232°
2026-05-08 02:31 -34.72081 150.37846 31754 ft 319 kts 232°
2026-05-08 02:31 -34.73634 150.35910 32046 ft 321 kts 232°
2026-05-08 02:31 -34.75191 150.33963 32340 ft 323 kts 233°
2026-05-08 02:32 -34.76749 150.32005 32645 ft 324 kts 233°
2026-05-08 02:32 -34.78313 150.30043 32930 ft 326 kts 233°
2026-05-08 02:32 -34.79891 150.28064 33204 ft 328 kts 233°
2026-05-08 02:32 -34.81477 150.26076 33473 ft 329 kts 233°
2026-05-08 02:33 -34.83061 150.24091 33730 ft 331 kts 233°
2026-05-08 02:33 -34.84683 150.22058 33985 ft 333 kts 233°
2026-05-08 02:33 -34.86294 150.20038 34227 ft 334 kts 233°
2026-05-08 02:33 -34.87891 150.18034 34449 ft 336 kts 233°
2026-05-08 02:34 -34.89528 150.15981 34666 ft 338 kts 233°
2026-05-08 02:34 -34.91156 150.13939 34880 ft 339 kts 233°
2026-05-08 02:34 -34.92798 150.11877 35088 ft 341 kts 233°
2026-05-08 02:34 -34.94448 150.09807 35288 ft 342 kts 233°
2026-05-08 02:35 -34.96101 150.07730 35482 ft 344 kts 233°
2026-05-08 02:35 -34.97767 150.05638 35671 ft 345 kts 233°
2026-05-08 02:35 -34.99449 150.03522 35853 ft 346 kts 233°
2026-05-08 02:35 -35.01121 150.01416 36026 ft 347 kts 233°
2026-05-08 02:36 -35.02798 149.99301 36192 ft 349 kts 233°
2026-05-08 02:36 -35.04433 149.97162 36347 ft 348 kts 236°
2026-05-08 02:36 -35.05975 149.94899 36495 ft 347 kts 238°
2026-05-08 02:36 -35.06941 149.93337 36588 ft 347 kts 240°
2026-05-08 02:37 -35.08830 149.90143 36772 ft 348 kts 240°
2026-05-08 02:37 -35.10239 149.87752 36900 ft 350 kts 240°
2026-05-08 02:37 -35.11666 149.85347 37024 ft 351 kts 240°
2026-05-08 02:37 -35.13096 149.82941 37144 ft 352 kts 240°
2026-05-08 02:38 -35.14534 149.80513 37264 ft 353 kts 240°
2026-05-08 02:38 -35.15966 149.78087 37376 ft 355 kts 240°
2026-05-08 02:38 -35.17409 149.75638 37486 ft 356 kts 240°
2026-05-08 02:38 -35.18835 149.73212 37590 ft 357 kts 240°
2026-05-08 02:39 -35.20283 149.70747 37692 ft 358 kts 240°
2026-05-08 02:39 -35.21734 149.68274 37789 ft 359 kts 240°
2026-05-08 02:39 -35.24657 149.63284 37973 ft 361 kts 240°
2026-05-08 02:40 -35.27560 149.58316 38115 ft 364 kts 240°
2026-05-08 02:40 -35.30503 149.53273 38119 ft 366 kts 240°
2026-05-08 02:41 -35.33458 149.48207 38117 ft 367 kts 240°
2026-05-08 02:41 -35.36420 149.43117 38116 ft 367 kts 240°
2026-05-08 02:42 -35.39378 149.38028 38116 ft 367 kts 240°
2026-05-08 02:42 -35.42309 149.32971 38117 ft 366 kts 240°
2026-05-08 02:43 -35.44752 149.28737 38116 ft 366 kts 240°
2026-05-08 02:43 -35.48179 149.22804 38116 ft 366 kts 240°
2026-05-08 02:44 -35.51122 149.17705 38115 ft 366 kts 240°
2026-05-08 02:44 -35.54059 149.12613 38116 ft 366 kts 240°
2026-05-08 02:45 -35.56995 149.07515 38115 ft 366 kts 240°
2026-05-08 02:45 -35.59908 149.02452 38115 ft 366 kts 240°
2026-05-08 02:46 -35.62854 148.97328 38115 ft 367 kts 241°
2026-05-08 02:46 -35.65773 148.92241 38115 ft 367 kts 241°
2026-05-08 02:47 -35.68710 148.87112 38115 ft 368 kts 241°
2026-05-08 02:47 -35.71649 148.81975 38115 ft 369 kts 242°
2026-05-08 02:48 -35.74592 148.76822 38115 ft 369 kts 242°
2026-05-08 02:48 -35.77533 148.71663 38115 ft 369 kts 242°
2026-05-08 02:49 -35.80481 148.66490 38115 ft 369 kts 242°
2026-05-08 02:49 -35.83423 148.61320 38115 ft 369 kts 242°
2026-05-08 02:50 -35.86366 148.56140 38115 ft 369 kts 242°
2026-05-08 02:50 -35.89285 148.50980 38115 ft 369 kts 242°
2026-05-08 02:51 -35.92218 148.45763 38115 ft 369 kts 242°
2026-05-08 02:51 -35.95136 148.40572 38115 ft 369 kts 242°
2026-05-08 02:52 -35.98042 148.35400 38115 ft 369 kts 242°
2026-05-08 02:52 -36.00957 148.30193 38116 ft 369 kts 242°
2026-05-08 02:53 -36.03880 148.24970 38116 ft 369 kts 242°
2026-05-08 02:53 -36.06781 148.19794 38116 ft 369 kts 242°
2026-05-08 02:54 -36.09691 148.14590 38116 ft 369 kts 242°
2026-05-08 02:54 -36.12600 148.09410 38115 ft 369 kts 242°
2026-05-08 02:55 -36.16988 148.01584 38115 ft 369 kts 242°
2026-05-08 02:56 -36.19398 147.97270 38115 ft 369 kts 242°
2026-05-08 02:56 -36.22792 147.91183 38116 ft 369 kts 242°
2026-05-08 02:57 -36.25708 147.85948 38116 ft 369 kts 242°
2026-05-08 02:57 -36.28609 147.80730 38116 ft 369 kts 242°
2026-05-08 02:58 -36.31508 147.75505 38116 ft 369 kts 242°
2026-05-08 02:58 -36.34393 147.70290 38116 ft 369 kts 242°
2026-05-08 02:59 -36.37287 147.65034 38116 ft 369 kts 242°
2026-05-08 02:59 -36.40168 147.59801 38116 ft 369 kts 242°
2026-05-08 03:00 -36.43047 147.54565 38115 ft 369 kts 242°
2026-05-08 03:00 -36.45947 147.49284 38116 ft 370 kts 242°
2026-05-08 03:01 -36.48840 147.44008 38116 ft 370 kts 242°
2026-05-08 03:01 -36.51712 147.38762 38115 ft 370 kts 242°
2026-05-08 03:02 -36.54607 147.33464 38119 ft 369 kts 243°
2026-05-08 03:02 -36.57463 147.28214 38116 ft 369 kts 243°
2026-05-08 03:03 -36.60335 147.22939 38116 ft 369 kts 243°
2026-05-08 03:03 -36.63204 147.17667 38116 ft 369 kts 243°
2026-05-08 03:04 -36.66086 147.12372 38117 ft 369 kts 243°
2026-05-08 03:04 -36.68943 147.07109 38132 ft 370 kts 243°
2026-05-08 03:05 -36.71811 147.01811 38162 ft 370 kts 243°
2026-05-08 03:05 -36.74688 146.96474 38194 ft 371 kts 243°
2026-05-08 03:06 -36.77555 146.91154 38108 ft 374 kts 244°
2026-05-08 03:06 -36.79004 146.88461 37405 ft 379 kts 244°
2026-05-08 03:06 -36.80474 146.85727 36702 ft 380 kts 244°
2026-05-08 03:06 -36.81934 146.83014 36072 ft 381 kts 244°
2026-05-08 03:07 -36.83397 146.80295 35472 ft 379 kts 244°
2026-05-08 03:07 -36.84864 146.77571 34885 ft 376 kts 244°
2026-05-08 03:07 -36.86306 146.74886 34309 ft 376 kts 244°
2026-05-08 03:07 -36.87751 146.72194 33729 ft 374 kts 244°
2026-05-08 03:08 -36.89185 146.69522 33151 ft 369 kts 244°
2026-05-08 03:08 -36.90614 146.66852 32573 ft 369 kts 243°
2026-05-08 03:08 -36.92016 146.64232 31978 ft 369 kts 243°
2026-05-08 03:08 -36.93444 146.61557 31336 ft 371 kts 243°
2026-05-08 03:09 -36.94878 146.58873 30678 ft 373 kts 243°
2026-05-08 03:09 -36.96320 146.56172 29994 ft 375 kts 243°
2026-05-08 03:09 -36.97753 146.53488 29298 ft 377 kts 242°
2026-05-08 03:09 -36.99202 146.50774 28666 ft 378 kts 242°
2026-05-08 03:10 -37.00661 146.48042 28159 ft 374 kts 242°
2026-05-08 03:10 -37.02104 146.45344 27681 ft 371 kts 242°
2026-05-08 03:10 -37.03522 146.42686 27217 ft 367 kts 242°
2026-05-08 03:10 -37.04911 146.40079 26770 ft 363 kts 242°
2026-05-08 03:11 -37.06307 146.37453 26311 ft 360 kts 242°
2026-05-08 03:11 -37.07676 146.34874 25864 ft 357 kts 243°
2026-05-08 03:11 -37.08585 146.33153 25576 ft 355 kts 243°
2026-05-08 03:11 -37.10392 146.29721 24994 ft 351 kts 243°
2026-05-08 03:12 -37.11738 146.27188 24555 ft 349 kts 243°
2026-05-08 03:12 -37.13080 146.24666 24118 ft 347 kts 242°
2026-05-08 03:12 -37.14393 146.22192 23676 ft 345 kts 242°
2026-05-08 03:12 -37.15711 146.19705 23233 ft 343 kts 242°
2026-05-08 03:13 -37.17025 146.17219 22778 ft 341 kts 242°
2026-05-08 03:13 -37.18325 146.14757 22327 ft 339 kts 242°
2026-05-08 03:13 -37.19619 146.12303 21878 ft 338 kts 242°
2026-05-08 03:13 -37.20900 146.09874 21427 ft 336 kts 242°
2026-05-08 03:14 -37.22195 146.07414 20969 ft 335 kts 242°
2026-05-08 03:14 -37.23463 146.05006 20523 ft 333 kts 242°
2026-05-08 03:14 -37.24739 146.02582 20076 ft 332 kts 242°
2026-05-08 03:14 -37.25996 146.00191 19632 ft 330 kts 242°
2026-05-08 03:15 -37.27260 145.97783 19185 ft 328 kts 241°
2026-05-08 03:15 -37.28507 145.95404 18739 ft 327 kts 241°
2026-05-08 03:15 -37.29755 145.93022 18294 ft 326 kts 241°
2026-05-08 03:15 -37.30995 145.90655 17856 ft 324 kts 241°
2026-05-08 03:16 -37.32227 145.88309 17415 ft 323 kts 241°
2026-05-08 03:16 -37.33452 145.85976 16974 ft 321 kts 241°
2026-05-08 03:16 -37.34675 145.83644 16532 ft 320 kts 240°
2026-05-08 03:16 -37.35885 145.81339 16091 ft 319 kts 240°
2026-05-08 03:17 -37.37112 145.78999 15649 ft 317 kts 240°
2026-05-08 03:17 -37.38317 145.76701 15221 ft 316 kts 240°
2026-05-08 03:17 -37.38705 145.75958 15081 ft 315 kts 240°
2026-05-08 03:17 -37.40699 145.72150 14372 ft 312 kts 240°
2026-05-08 03:18 -37.41893 145.69865 13949 ft 311 kts 240°
2026-05-08 03:18 -37.43067 145.67618 13537 ft 309 kts 240°
2026-05-08 03:18 -37.44169 145.65303 13110 ft 306 kts 248°
2026-05-08 03:18 -37.44823 145.62799 12697 ft 301 kts 260°
2026-05-08 03:19 -37.45007 145.60182 12281 ft 299 kts 269°
2026-05-08 03:19 -37.44997 145.57585 11861 ft 298 kts 271°
2026-05-08 03:19 -37.44964 145.54982 11450 ft 297 kts 271°
2026-05-08 03:19 -37.44930 145.52390 11053 ft 295 kts 270°
2026-05-08 03:20 -37.44899 145.49846 10672 ft 293 kts 270°
2026-05-08 03:20 -37.44869 145.47279 10294 ft 291 kts 270°
2026-05-08 03:20 -37.44840 145.44817 10142 ft 271 kts 270°
2026-05-08 03:20 -37.44815 145.42526 10101 ft 255 kts 270°
2026-05-08 03:21 -37.44790 145.40344 10048 ft 245 kts 270°
2026-05-08 03:21 -37.44763 145.38207 9899 ft 244 kts 270°
2026-05-08 03:21 -37.44737 145.36075 9575 ft 243 kts 270°
2026-05-08 03:21 -37.44711 145.33958 9277 ft 243 kts 270°
2026-05-08 03:22 -37.44686 145.31784 9032 ft 246 kts 270°
2026-05-08 03:22 -37.44660 145.29669 8856 ft 238 kts 270°
2026-05-08 03:22 -37.44634 145.27647 8641 ft 229 kts 270°
2026-05-08 03:22 -37.44609 145.25621 8212 ft 231 kts 270°
2026-05-08 03:23 -37.44582 145.23631 7900 ft 229 kts 270°
2026-05-08 03:23 -37.44557 145.21634 7623 ft 227 kts 270°
2026-05-08 03:23 -37.44529 145.19624 7350 ft 228 kts 270°
2026-05-08 03:23 -37.44501 145.17630 7072 ft 227 kts 270°
2026-05-08 03:24 -37.44476 145.15680 6797 ft 226 kts 270°
2026-05-08 03:24 -37.44448 145.13693 6543 ft 225 kts 270°
2026-05-08 03:24 -37.44419 145.11740 6294 ft 225 kts 270°
2026-05-08 03:24 -37.44389 145.09755 6043 ft 226 kts 269°
2026-05-08 03:25 -37.44363 145.07788 5790 ft 225 kts 270°
2026-05-08 03:25 -37.44333 145.05830 5535 ft 223 kts 269°
2026-05-08 03:25 -37.44303 145.03860 5287 ft 223 kts 270°
2026-05-08 03:25 -37.44275 145.01924 5034 ft 222 kts 270°
2026-05-08 03:26 -37.44243 144.99971 4780 ft 223 kts 269°
2026-05-08 03:26 -37.44213 144.98036 4454 ft 223 kts 269°
2026-05-08 03:26 -37.44183 144.96078 4152 ft 222 kts 269°
2026-05-08 03:26 -37.44241 144.94159 3848 ft 220 kts 263°
2026-05-08 03:27 -37.44460 144.92250 3545 ft 218 kts 258°
2026-05-08 03:27 -37.44721 144.90392 3243 ft 217 kts 259°
2026-05-08 03:27 -37.44986 144.88521 3017 ft 212 kts 259°
2026-05-08 03:27 -37.45234 144.86757 2993 ft 201 kts 259°
2026-05-08 03:28 -37.45464 144.85097 2974 ft 185 kts 258°
2026-05-08 03:28 -37.45687 144.83511 2991 ft 183 kts 258°
2026-05-08 03:28 -37.45933 144.81923 2981 ft 185 kts 250°
2026-05-08 03:28 -37.46646 144.80635 2974 ft 188 kts 214°
2026-05-08 03:29 -37.47922 144.80186 2995 ft 196 kts 182°
2026-05-08 03:29 -37.49285 144.80383 3054 ft 193 kts 176°
2026-05-08 03:29 -37.50520 144.80684 3159 ft 170 kts 176°
2026-05-08 03:29 -37.51603 144.80939 3112 ft 151 kts 177°
2026-05-08 03:30 -37.53555 144.81325 2747 ft 138 kts 179°
2026-05-08 03:30 -37.55467 144.81673 2403 ft 138 kts 179°
2026-05-08 03:31 -37.57371 144.82021 2038 ft 137 kts 180°
2026-05-08 03:31 -37.59251 144.82370 1653 ft 137 kts 178°
2026-05-08 03:32 -37.60193 144.82544 1474 ft 136 kts 179°
2026-05-08 03:32 -37.61123 144.82716 1292 ft 135 kts 179°
2026-05-08 03:32 -37.62067 144.82892 1106 ft 138 kts 178°
2026-05-08 03:32 -37.63006 144.83090 945 ft 136 kts 179°
2026-05-08 03:33 -37.63942 144.83250 771 ft 132 kts 178°
2026-05-08 03:33 -37.64857 144.83412 586 ft 132 kts 179°
2026-05-08 03:33 -37.65730 144.83575 443 ft 119 kts 177°
2026-05-08 03:33 -37.66445 144.83702 442 ft 85 kts 171°
2026-05-08 03:34 -37.66915 144.83791 442 ft 35 kts 171°
2026-05-08 03:34 -37.67051 144.83879 442 ft 10 kts 150°
2026-05-08 03:34 -37.67108 144.83933 442 ft 10 kts 140°
2026-05-08 03:34 -37.67121 144.83946 442 ft 1 kts 141°
2026-05-08 03:35 -37.67131 144.83955 442 ft 2 kts 141°
2026-05-08 03:35 -37.67147 144.83971 442 ft 3 kts 141°
2026-05-08 03:35 -37.67198 144.84027 442 ft 7 kts 128°
2026-05-08 03:36 -37.67220 144.84096 442 ft 9 kts 98°
2026-05-08 03:36 -37.67215 144.84180 442 ft 10 kts 74°
2026-05-08 03:36 -37.67169 144.84247 442 ft 11 kts 24°
2026-05-08 03:36 -37.67092 144.84265 442 ft 11 kts 24°
2026-05-08 03:37 -37.67055 144.84351 442 ft 12 kts 81°
2026-05-08 03:37 -37.67028 144.84456 442 ft 12 kts 65°
2026-05-08 03:37 -37.67014 144.84552 442 ft 10 kts 84°
2026-05-08 03:37 -37.67012 144.84602 442 ft 4 kts 109°
2026-05-08 03:38 -37.67028 144.84615 442 ft 0 kts 167°
2026-05-08 03:38 -37.67033 144.84616 442 ft 0 kts 167°
2026-05-08 03:38 -37.67046 144.84619 442 ft 2 kts 170°
2026-05-08 03:38 -37.67066 144.84624 442 ft 3 kts 171°
2026-05-08 03:39 -37.67068 144.84624 442 ft 0 kts 171°